Showing default

JILIN-01-06, 43024

Orbit data source: Space-Track

JILIN-01-06, 43024 is a payload satellite owned by Changguang WJ (CN) in SSO that was launched on Tue, 21 Nov 2017 UTC via a CHANG ZHENG 6 launch vehicle from the Taiyaun Space Center, China (TSC). Payload-class satellites include a variety of spacecraft equipped with specific instruments for various scientific and technological missions. These include communications satellites like Starlink; space stations such as the ISS; scientific satellites like the Hubble; Earth observation satellites from companies like Planet Labs, Umbra, and HawkEye 360; GPS; miniature CubeSats for education and research; and military/defense satellites.

Loading next visibility...
Identifier
43024, 2017-074C
Orbit
SSO
Country
Flag of CNCN / PRC
Related business
Manufacturer
HARB/CIOMP
Mission
Operational Commercial Imaging
Bus & Motor
JL-1, Unknown motor
Mass
95 kg wet, 95 kg dry
Launch date (UTC)
2017-11-21 (8 years ago)
Launch vehicle
CHANG ZHENG 6
Launch site
Taiyaun Space Center, China (TSC)
Object type
Payload
Rocket body
Debris
Shape & HBR
Box + 2 Pan, 0.8 m
Radar Cross Section
2.000 m², Medium (>0.1 m² and < 1m²)

Expand to show TLE details & history
Last TLE update: 8 hours ago

TLE from 8 hours ago
0 JILIN-01-06
1 43024U 17074C   25293.64170637  .00014661  00000-0  51113-3 0  9999
2 43024  97.4786  29.6025 0007677  20.8851 339.2702 15.29713992437166
Epoch: 2025-10-20T15:24Z
TLE epoch observation values (Epoch: 2025-10-20T15:24:03.430Z)
Latitude
0.00005°
Longitude
129.24711°
Altitude
474.846 km
Speed
7.631 km/s
True Right ascension
01h 58m 24s
True Declination
0° 00' 00"
Sunlit
Object was in full shadow at epoch
Visualization orbit readout
Latitude
Unknown
Longitude
Unknown
Altitude
Unknown
Speed
Unknown
Apparent Right ascension
Unknown
Apparent Declination
Unknown
Sunlit
N/A
Visualization observer readout
Local Sidereal Time
18:02:57
Azimuth
Unknown
Elevation
Unknown
Doppler factor
Unknown
Orbital elements
Apogee altitude
478.883 km
Perigee altitude
468.363 km
Semi-major axis
6,851.76 km
Eccentricity
0.00077
Inclination
97.4786°
RAAN
29.6025°
Arg. of periapsis
20.8851°
True anomaly
339.23903°
Mean anomaly
339.2702°
Eccentric anomaly
339.25462°
Mean motion
3.82684 °/min
Orbital period
94.07 mins
BSTAR
0.00051113
Loading maneuver chart data...
Computing Atmospheric mass density...
Loading historical data...
Loading historical data...
Loading historical data...
Loading historical data...
Loading historical data...
Loading historical data...
Loading historical data...
Other satellites on launch #74 in the year 2017 (2017-11-21 UTC)

Documentation

Showing up to 5 results
|